Regional Weather Roundup
Issued by NWS Northern Indiana

Home | Current Version | Previous Version | Graphics & Text | Print | Product List | Glossary On
Versions: 1 2 3 4 5 6 7 8 9 10 11 12 13 14 15 16 17 18 19 20 21 22 23 24 25 26 27 28 29 30 31 32 33 34 35 36 37 38 39 40 41 42 43 44 45 46 47 48 49 50
000
ASUS43 KIWX 161300
RWRIWX

KIWX WEATHER ROUNDUP
NATIONAL WEATHER SERVICE NORTHERN INDIANA
900 AM EDT TUE SEP 16 2014

NOTE: "FAIR" INDICATES FEW OR NO CLOUDS BELOW 12,000 FEET WITH NO
SIGNIFICANT WEATHER AND/OR OBSTRUCTIONS TO VISIBILITY.

* THESE STATIONS ARE NOT UNDER NWS QUALITY CONTROL. THEY ALSO MAY NOT
  REPORT WEATHER SUCH AS PRECIPITATION OR FOG.

INZ001>027-161400-
NORTHERN INDIANA

CITY           SKY/WX    TMP DP  RH WIND       PRES   REMARKS
GARY*          MOSUNNY   52  50  93 W7        30.21R
VALPARAISO     PTSUNNY   54  49  83 S3        30.20S
SOUTH BEND     SUNNY     51  49  92 CALM      30.20S
GOSHEN         MOSUNNY   51  49  92 N3        30.20R
ANGOLA*        PTSUNNY   52  37  58 CALM      30.18S
FORT WAYNE     MOSUNNY   55  51  86 N3        30.19S
PERU/GRISSOM   MOSUNNY   52  52 100 CALM      30.19F

$$
INZ028>050-161400-
CENTRAL INDIANA

CITY           SKY/WX    TMP DP  RH WIND       PRES   REMARKS
LAFAYETTE      CLOUDY    51  51 100 CALM      30.21S FOG
KOKOMO*        PTSUNNY   54  48  82 N5        30.20S
MUNCIE*        CLOUDY    53  50  89 N3        30.19S FOG
INDIANAPOLIS   CLOUDY    54  50  86 N9        30.20R

$$
MIZ043>046-050>051-056>058-064>065-071>073-077>080-161400-
SOUTHWEST LOWER MICHIGAN

CITY           SKY/WX    TMP DP  RH WIND       PRES   REMARKS
BATTLE CREEK   FOG       48  47  96 CALM      30.19S VSB 1/4
BENTON HARBOR  MOSUNNY   49  48  97 CALM      30.19S
COLDWATER*     CLOUDY    49  49  97 N6        30.18S FOG
HILLSDALE*     PTSUNNY   50  49  99 NW6       30.18R
HOLLAND        SUNNY     50  48  93 S3        30.18F
GRAND RAPIDS   FOG       46  45  96 S3        30.18F VSB 1/4
KALAMAZOO      SUNNY     50  48  93 CALM      30.19S
STURGIS*       CLOUDY    48  48 100 CALM      30.19R FOG
THREE RIVERS*  FAIR      51  50  97 CALM      30.20R

$$
OHZ001>008-015>018-024>025-161400-
NORTHWEST OHIO

CITY           SKY/WX    TMP DP  RH WIND       PRES   REMARKS
DEFIANCE       CLOUDY    52  49  89 CALM      30.19S FOG
FINDLAY        PTSUNNY   55  51  86 NW9       30.17R
TOLEDO EXPRESS SUNNY     54  50  86 CALM      30.17R
TOLEDO METCALF SUNNY     55  49  80 N9        30.18R
LIMA           MOSUNNY   55  52  89 N3        30.18R FOG

$$
&&



USA.gov is the U.S. government's official web portal to all federal, state and local government web resources and services.